Simultaneous Nadir Overpasses (SNOs) Predictions

Prediction of SNOs between NOAA-20 and AQUA Satellite Orbit:

Table of predicted SNOs for the next 14.0 days since TLE Epoch: 3/25/2023
Index Date (NOAA-20) Time (NOAA-20) Lat,Lon (NOAA-20) SZA (NOAA-20 ) Date (AQUA) Time (AQUA) Lat,Lon (AQUA) SZA (AQUA ) Distance(km) Time Diff (sec)
1 03/26/2023 00:56:45 80.03, 67.63 89.67 03/26/2023 00:57:06 80.03, 67.71 89.64 1.62 21
2 03/26/2023 01:47:25 -80.18,-123.36 90.66 03/26/2023 01:46:27 -80.18,-123.26 90.63 1.85 58
3 03/28/2023 15:32:13 80.04,-151.13 88.61 03/28/2023 15:32:43 80.03,-151.12 88.59 0.13 30
4 03/28/2023 16:22:52 -80.19, 17.90 91.72 03/28/2023 16:22:03 -80.19, 17.93 91.69 0.52 49
5 03/31/2023 06:07:39 80.07, -9.65 87.52 03/31/2023 06:08:16 80.07, -9.72 87.50 1.22 37
6 03/31/2023 06:58:20 -80.20, 159.08 92.76 03/31/2023 06:57:38 -80.19, 159.06 92.73 0.62 42
7 04/02/2023 20:43:07 80.06, 131.44 86.50 04/02/2023 20:43:49 80.06, 131.33 86.49 2.23 42
8 04/02/2023 21:33:47 -80.22, -59.50 93.84 04/02/2023 21:33:10 -80.22, -59.57 93.80 1.42 37
9 04/05/2023 11:18:34 80.08, -87.23 85.45 04/05/2023 11:19:19 80.07, -87.38 85.45 2.99 45
10 04/05/2023 12:09:14 -80.24, 81.84 94.89 04/05/2023 12:08:40 -80.23, 81.73 94.84 2.05 34
11 04/08/2023 01:54:04 80.01, 53.12 84.60 04/08/2023 01:54:49 80.01, 53.27 84.54 2.94 45



Historial Predications of SNOs between NOAA-20 and AQUA
